Weather History for KT65 - February, 2014

Change the Weather History Date:

Sunday, February 2, 2014

  Actual Average (KMFE) Record (KMFE)
Temperature  
Mean Temperature 62 °F 62 °F  
Max Temperature 77 °F 73 °F 95 °F (1963)
Min Temperature 47 °F 52 °F 24 °F (1888)
Degree Days  
Heating Degree Days 3 5  
Month to date heating degree days 10  
Since 1 July heating degree days 437  
Cooling Degree Days 0 2  
Month to date cooling degree days 4  
Year to date cooling degree days 66  
Growing Degree Days 12 (Base 50)    
Moisture  
Dew Point 56 °F    
Average Humidity 78    
Maximum Humidity 87    
Minimum Humidity 60    
Precipitation  
Precipitation 0.00 in 0.04 in 0.54 in (2001)
Month to date precipitation 0.09  
Year to date precipitation 1.14  
Sea Level Pressure  
Sea Level Pressure 29.89 in    
Wind  
Wind Speed 13 mph (WSW)    
Max Wind Speed 29 mph    
Max Gust Speed 33 mph    
Visibility 6 miles    
Events      
T = Trace of Precipitation, MM = Missing Value Source: NWS Daily Summary

Daily Weather History Graph

Daily Weather History Graph

Search for Another Location

Airport or City:

Trip Planner

Search our weather history database for the weather conditions in past years. The results will help you decide how hot, cold, wet, or windy it might be!

Date:

Astronomy

Feb. 02, 2014 Rise Set
Actual Time 7:15 AM CST 6:15 PM CST
Civil Twilight 6:51 AM CST 6:39 PM CST
Nautical Twilight 6:24 AM CST 7:07 PM CST
Astronomical Twilight 5:56 AM CST 7:34 PM CST
Moon 9:06 AM CST (2/2) 9:34 PM CST (2/2)
Length of Visible Light 11h 48m
Length of Day
11h 00m
Waxing Crescent, 11% of the Moon is Illuminated
Feb 2
Waxing Crescent
Feb 6
First Quarter
Feb 14
Full
Feb 22
Last Quarter
Mar 1
New

Hourly Weather History & Observations

Time (CST) Temp. Dew Point Humidity Pressure Visibility Wind Dir Wind Speed Gust Speed Precip Events Conditions
12:15 AM 68.4 °F 64.0 °F 86% 29.78 in 5.0 mi SSE 15.0 mph 19.6 mph N/A   Overcast
12:35 AM 68.4 °F 64.0 °F 86% 29.78 in 5.0 mi SSE 13.8 mph 19.6 mph N/A   Haze
12:55 AM 68.4 °F 64.4 °F 87% 29.78 in 5.0 mi SSE 12.7 mph 20.7 mph N/A   Scattered Clouds
1:15 AM 68.5 °F 64.6 °F 87% 29.78 in 5.0 mi South 15.0 mph 20.7 mph N/A   Mostly Cloudy
1:35 AM 69.3 °F 63.9 °F 83% 29.78 in 7.0 mi SSE 16.1 mph 25.3 mph N/A   Overcast
1:55 AM 69.8 °F 63.5 °F 80% 29.77 in 7.0 mi SSE 16.1 mph 24.2 mph N/A   Overcast
2:15 AM 69.8 °F 63.5 °F 80% 29.76 in 7.0 mi SSE 13.8 mph 23.0 mph N/A   Overcast
2:35 AM 70.0 °F 63.0 °F 78% 29.76 in 7.0 mi SSE 16.1 mph 24.2 mph N/A   Overcast
2:55 AM 69.6 °F 63.0 °F 79% 29.75 in 7.0 mi SSE 13.8 mph 19.6 mph N/A   Overcast
3:15 AM 69.4 °F 63.5 °F 81% 29.75 in 7.0 mi SSE 11.5 mph - N/A   Overcast
3:35 AM 69.1 °F 63.7 °F 83% 29.74 in 7.0 mi SSE 13.8 mph 18.4 mph N/A   Overcast
3:55 AM 69.1 °F 63.7 °F 83% 29.74 in 7.0 mi SSE 9.2 mph 18.4 mph N/A   Overcast
4:15 AM 68.9 °F 63.9 °F 84% 29.73 in 7.0 mi SSE 12.7 mph 18.4 mph N/A   Overcast
4:35 AM 68.9 °F 64.0 °F 84% 29.74 in 7.0 mi SSE 15.0 mph - N/A   Overcast
4:55 AM 68.9 °F 64.4 °F 86% 29.74 in 5.0 mi SSE 10.4 mph 18.4 mph N/A   Haze
5:15 AM 68.5 °F 64.4 °F 87% 29.74 in 5.0 mi SSE 11.5 mph - N/A   Haze
5:35 AM 68.9 °F 64.6 °F 86% 29.75 in 5.0 mi South 12.7 mph 20.7 mph N/A   Overcast
5:55 AM 69.1 °F 64.4 °F 85% 29.75 in 5.0 mi SSE 12.7 mph - N/A   Haze
6:15 AM 68.9 °F 64.4 °F 86% 29.75 in 5.0 mi South 13.8 mph 18.4 mph N/A   Haze
6:35 AM 68.9 °F 64.0 °F 84% 29.75 in 5.0 mi South 17.3 mph 20.7 mph N/A   Haze
6:55 AM 68.9 °F 64.2 °F 85% 29.75 in 5.0 mi SSE 12.7 mph - N/A   Haze
7:15 AM 68.9 °F 63.7 °F 83% 29.75 in 7.0 mi SSE 13.8 mph 19.6 mph N/A   Overcast
7:35 AM 68.9 °F 63.5 °F 83% 29.75 in 7.0 mi SSE 16.1 mph 19.6 mph N/A   Overcast
7:55 AM 69.1 °F 63.5 °F 82% 29.76 in 5.0 mi SSE 13.8 mph 21.9 mph N/A   Haze
8:15 AM 69.3 °F 63.5 °F 82% 29.77 in 5.0 mi South 12.7 mph 24.2 mph N/A   Haze
8:35 AM 69.1 °F 63.5 °F 82% 29.77 in 5.0 mi South 15.0 mph 19.6 mph N/A   Haze
8:55 AM 68.9 °F 63.7 °F 83% 29.78 in 5.0 mi South 13.8 mph - N/A   Haze
9:15 AM 69.3 °F 63.9 °F 83% 29.80 in 5.0 mi South 6.9 mph 17.3 mph N/A   Haze
9:35 AM 69.8 °F 64.0 °F 82% 29.82 in 5.0 mi South 10.4 mph - N/A   Haze
9:55 AM 69.8 °F 64.0 °F 82% 29.83 in 5.0 mi SSW 6.9 mph - N/A   Haze
10:15 AM 70.3 °F 64.2 °F 81% 29.84 in 4.0 mi SSW 6.9 mph - N/A   Haze
10:35 AM 70.7 °F 64.0 °F 79% 29.85 in 5.0 mi SSW 4.6 mph - N/A   Haze
10:55 AM 71.6 °F 64.2 °F 77% 29.85 in 5.0 mi SW 8.1 mph - N/A   Haze
11:15 AM 72.1 °F 64.2 °F 76% 29.84 in 5.0 mi SSW 6.9 mph - N/A   Haze
11:35 AM 73.6 °F 64.4 °F 73% 29.83 in 5.0 mi South 10.4 mph - N/A   Haze
11:55 AM 73.8 °F 63.5 °F 70% 29.84 in 5.0 mi SSW 8.1 mph 17.3 mph N/A   Haze
12:15 PM 73.9 °F 62.6 °F 68% 29.84 in 5.0 mi SW 6.9 mph - N/A   Haze
12:35 PM 73.4 °F 63.5 °F 71% 29.84 in 5.0 mi WNW 4.6 mph - N/A   Haze
12:55 PM 73.6 °F 63.5 °F 71% 29.84 in 5.0 mi WNW 6.9 mph - N/A   Haze
1:15 PM 73.4 °F 63.5 °F 71% 29.85 in 5.0 mi NW 8.1 mph - N/A   Haze
1:35 PM 73.4 °F 63.1 °F 70% 29.85 in 5.0 mi NW 11.5 mph - N/A   Haze
1:55 PM 73.0 °F 62.8 °F 70% 29.84 in 5.0 mi North 10.4 mph - N/A   Haze
2:15 PM 77.2 °F 63.7 °F 63% 29.84 in 5.0 mi NNW 8.1 mph - N/A   Haze
2:35 PM 77.9 °F 63.1 °F 60% 29.83 in 7.0 mi North 6.9 mph - N/A   Scattered Clouds
2:55 PM 76.1 °F 62.6 °F 63% 29.84 in 7.0 mi North 11.5 mph - N/A   Overcast
3:15 PM 63.7 °F 54.3 °F 72% 29.89 in 7.0 mi NNW 28.8 mph 33.4 mph N/A   Overcast
3:35 PM 60.1 °F 51.8 °F 74% 29.91 in 5.0 mi NNW 24.2 mph 32.2 mph N/A   Haze
3:55 PM 57.2 °F 50.0 °F 77% 29.92 in 5.0 mi North 20.7 mph 31.1 mph N/A   Haze
4:15 PM 55.4 °F 48.7 °F 78% 29.95 in 5.0 mi NNW 21.9 mph 27.6 mph N/A   Haze
4:35 PM 53.1 °F 47.1 °F 80% 29.96 in 5.0 mi NNW 19.6 mph 29.9 mph N/A   Haze
4:55 PM 52.0 °F 46.0 °F 80% 29.98 in 5.0 mi North 20.7 mph 29.9 mph N/A   Haze
5:15 PM 50.9 °F 44.6 °F 79% 30.00 in 5.0 mi North 18.4 mph 26.5 mph N/A   Haze
5:35 PM 50.9 °F 44.8 °F 80% 30.01 in 5.0 mi North 16.1 mph 23.0 mph N/A   Haze
5:55 PM 49.1 °F 43.0 °F 79% 30.03 in 5.0 mi North 18.4 mph 28.8 mph N/A   Haze
6:15 PM 49.1 °F 42.8 °F 79% 30.04 in 7.0 mi North 12.7 mph 21.9 mph N/A   Overcast
6:35 PM 48.6 °F 41.9 °F 78% 30.04 in 7.0 mi North 11.5 mph 17.3 mph N/A   Overcast
6:55 PM 48.6 °F 41.9 °F 78% 30.06 in 7.0 mi NNW 15.0 mph 19.6 mph N/A   Overcast
7:15 PM 48.6 °F 41.9 °F 78% 30.07 in 7.0 mi North 15.0 mph 21.9 mph N/A   Overcast
7:35 PM 48.6 °F 41.9 °F 78% 30.08 in 7.0 mi North 15.0 mph - N/A   Overcast
7:55 PM 48.4 °F 41.9 °F 78% 30.10 in 7.0 mi North 10.4 mph - N/A   Overcast
8:15 PM 48.4 °F 41.5 °F 77% 30.11 in 7.0 mi NNW 15.0 mph 18.4 mph N/A   Overcast
8:35 PM 48.4 °F 41.4 °F 77% 30.12 in 7.0 mi North 13.8 mph - N/A   Overcast
8:55 PM 47.8 °F 41.4 °F 78% 30.13 in 7.0 mi North 12.7 mph - N/A   Overcast
9:15 PM 48.4 °F 41.4 °F 77% 30.14 in 7.0 mi NNW 12.7 mph 18.4 mph N/A   Overcast
9:35 PM 49.1 °F 41.0 °F 74% 30.14 in 10.0 mi NNW 16.1 mph 19.6 mph N/A   Overcast
9:55 PM 49.1 °F 41.2 °F 74% 30.15 in 7.0 mi NNW 15.0 mph 23.0 mph N/A   Overcast
10:15 PM 48.6 °F 41.0 °F 75% 30.16 in 7.0 mi NNW 15.0 mph 21.9 mph N/A   Overcast
10:35 PM 48.6 °F 41.0 °F 75% 30.16 in 7.0 mi North 13.8 mph 19.6 mph N/A   Overcast
10:55 PM 48.7 °F 41.0 °F 75% 30.17 in 10.0 mi NNW 11.5 mph 17.3 mph N/A   Overcast
11:15 PM 49.1 °F 41.0 °F 74% 30.17 in 10.0 mi North 9.2 mph - N/A   Overcast
11:35 PM 49.3 °F 41.0 °F 73% 30.16 in 10.0 mi North 10.4 mph - N/A   Overcast
11:55 PM 49.6 °F 40.6 °F 71% 30.16 in 10.0 mi North 16.1 mph 20.7 mph N/A   Overcast